Location: Poughquag
(41.6090°N, 73.6820°W)
Time: 11:23:24
(UTC-04:00)

Vanguard 1 - Pass Details

Date: 30 May 2020
Orbit: 650 x 3833 km, 34.2° (Epoch: 07 July)

Event Time Altitude Azimuth Distance (km) Brightness Sun altitude
Rises 05:26:00 0° 218° (SW) 5,716 13.4 -0.5°
Reaches altitude 10° 05:29:26 10° 211° (SSW) 5,081 13.2 0.1°
Maximum altitude 05:44:31 45° 145° (SE) 4,118 13.4 2.6°
Drops below altitude 10° 06:05:33 10° 82° (E) 6,938 16.3 6.1°
Sets 06:11:13 0° 77° (ENE) 7,889 16.8 7.1°
